This is the latest recevied weather packets stored in our database for station/object W1REE. If no packets are shown the sender has not sent any weather packets the latest 10 day(s).
| Time | Temp. | Humidity | Pressure | Rain* | Wind** | Luminosity | Snow |
|---|---|---|---|---|---|---|---|
| 1777766556 | 18.89° C | 19% | 1020.7 hPa | 0 mm | - | 54 W/m² | - |
| 1777766253 | 19.44° C | 17% | 1021.1 hPa | 0 mm | - | 96 W/m² | - |
| 1777765951 | 19.44° C | 18% | 1020.8 hPa | 0 mm | - | 174 W/m² | - |
| 1777765647 | 19.44° C | 18% | 1021.1 hPa | 0 mm | - | 193 W/m² | - |
| 1777765344 | 18.89° C | 17% | 1021.1 hPa | 0 mm | - | 211 W/m² | - |
| 1777765040 | 19.44° C | 18% | 1021 hPa | 0 mm | - | 231 W/m² | - |
| 1777764737 | 20° C | 18% | 1021.2 hPa | 0 mm | - | 252 W/m² | - |
| 1777764433 | 20.56° C | 16% | 1021.2 hPa | 0 mm | - | 269 W/m² | - |
| 1777764130 | 19.44° C | 19% | 1021.2 hPa | 0 mm | - | 290 W/m² | - |
| 1777763827 | 18.89° C | 18% | 1021 hPa | 0 mm | - | 313 W/m² | - |
| 1777763525 | 18.89° C | 18% | 1021.2 hPa | 0 mm | - | 333 W/m² | - |
| 1777763223 | 19.44° C | 18% | 1021.2 hPa | 0 mm | - | 355 W/m² | - |
| 1777762921 | 20° C | 17% | 1021.1 hPa | 0 mm | - | 377 W/m² | - |
| 1777762616 | 20° C | 18% | 1021.1 hPa | 0 mm | - | 397 W/m² | - |
| 1777762314 | 20.56° C | 17% | 1021.1 hPa | 0 mm | - | 415 W/m² | - |
| 1777762010 | 20° C | 17% | 1021.2 hPa | 0 mm | - | 438 W/m² | - |
| 1777761707 | 20° C | 16% | 1021.2 hPa | 0 mm | - | 461 W/m² | - |
| 1777761405 | 20° C | 17% | 1021.3 hPa | 0 mm | - | 480 W/m² | - |
| 1777761103 | 20° C | 17% | 1021.3 hPa | 0 mm | - | 501 W/m² | - |
| 1777760800 | 20° C | 18% | 1021.3 hPa | 0 mm | - | 519 W/m² | - |
| 1777760497 | 20° C | 20% | 1021.4 hPa | 0 mm | - | 541 W/m² | - |
| 1777760192 | 19.44° C | 17% | 1021.6 hPa | 0 mm | - | 565 W/m² | - |
| 1777759889 | 18.89° C | 18% | 1021.7 hPa | 0 mm | - | 583 W/m² | - |
| 1777759586 | 19.44° C | 17% | 1021.6 hPa | 0 mm | - | 601 W/m² | - |
| 1777759282 | 20° C | 16% | 1021.7 hPa | 0 mm | - | 625 W/m² | - |
* Rain latest hour (hover to see other rain measurements)
** Current wind speed in m/s (hover to see current wind gust speed)